STARLINK-3849, 52343

Orbit data source: Space-Track

STARLINK-3849, 52343 is a payload satellite owned by SpaceX/Seattle (US) in LEO that was launched on Fri, 29 Apr 2022 UTC via an FALCON 9 launch vehicle from the Air Force Eastern Test Range (AFETR). Payload-class satellites include a variety of spacecraft equipped with specific instruments for various scientific and technological missions. These include communications satellites like Starlink; space stations such as the ISS; scientific satellites like the Hubble; Earth observation satellites from companies like Planet Labs, Umbra, and HawkEye 360; GPS; miniature CubeSats for education and research; and military/defense satellites.

Loading next visibility...
Identifier
52343, 2022-045N
Orbit
LEO
Country
Flag of USUS
Related business
Manufacturer
SpaceX/Seattle
Mission
Operational Commercial Communications
Bus & Motor
STARLINK, Unknown motor
Mass
297 kg wet, ~275 kg dry
Launch date (UTC)
2022-04-29 (4 years ago)
Launch vehicle
FALCON 9
Launch site
Air Force Eastern Test Range (AFETR)
Object type
Payload
Rocket body
Debris
Shape & HBR
Box + 1 Pan, 10.1 m
Radar Cross Section
11.087 m², Large (>1 m²)

Expand to show TLE details & history
Last TLE update: 9 hours ago

TLE from 9 hours ago
0 STARLINK-3849
1 52343U 22045N   26119.86582446  .00000780  00000-0  67077-4 0  9998
2 52343  53.2179 339.3834 0001287  88.7016 271.4124 15.08840319223374
Epoch: 2026-04-29T20:46Z
TLE epoch observation values (Epoch: 2026-04-29T20:46:47.233Z)
Latitude
0.00002°
Longitude
169.86596°
Altitude
540.618 km
Speed
7.593 km/s
True Right ascension
22h 37m 32s
True Declination
0° 00' 00"
Sunlit
Object was in daylight at epoch
Visualization orbit readout
Latitude
Unknown
Longitude
Unknown
Altitude
Unknown
Speed
Unknown
Apparent Right ascension
Unknown
Apparent Declination
Unknown
Sunlit
N/A
Visualization observer readout
Local Sidereal Time
13:41:01
Azimuth
Unknown
Elevation
Unknown
Doppler factor
Unknown
Orbital elements
Apogee altitude
540.878 km
Perigee altitude
539.097 km
Semi-major axis
6,918.124 km
Eccentricity
0.00013
Inclination
53.2179°
RAAN
339.3834°
Arg. of periapsis
88.7016°
True anomaly
271.39766°
Mean anomaly
271.4124°
Eccentric anomaly
271.40503°
Mean motion
3.7719 °/min
Orbital period
95.44 mins
BSTAR
0.000067077
Loading maneuver chart data...
Computing Atmospheric mass density...
Loading historical data...
Loading historical data...
Loading historical data...
Loading historical data...
Loading historical data...
Loading historical data...
Loading historical data...

Documentation

Showing up to 5 results
|